Location: Newark
(40.3820°N, 3.6624°W)
Time: 15:25:50
(UTC+00:00)

N. Korean satellite - Pass Details

Date: 24 November 2019
Orbit: 456 x 506 km, 97.2° (Epoch: 07 December)

Event Time Altitude Azimuth Distance (km) Brightness Sun altitude
Rises 17:42:57 0° 183° (S) 2,565 10.5 -9.8°
Reaches altitude 10° 17:45:06 10° 190° (S) 1,695 9.7 -10.2°
Maximum altitude 17:48:34 41° 262° (W) 744 8.1 -10.8°
Drops below altitude 10° 17:52:05 10° 333° (NNW) 1,724 9.5 -11.5°
Sets 17:54:17 0° 341° (NNW) 2,617 10.3 -11.9°
